Time,TemperatureF,DewpointF,PressureIn,WindDirection,WindDirectionDegrees,WindSpeedMPH,WindSpeedGustMPH,Humidity,HourlyPrecipIn,Conditions,Clouds,dailyrainin,SoftwareType,DateUTC
2013-04-29 09:52:00,54.0,52.0,30.04,West,278,0.0,0.0,93,-99.99,,,-99.99,,2013-04-29 13:52:00,
2013-04-29 10:02:00,54.0,52.0,30.04,West,278,0.0,0.0,92,-99.99,,,-99.99,,2013-04-29 14:02:00,
2013-04-29 10:12:00,54.0,52.0,30.04,West,278,0.0,0.0,92,-99.99,,,-99.99,,2013-04-29 14:12:00,
2013-04-29 10:21:00,54.0,52.0,30.03,West,278,0.0,0.0,93,-99.99,,,-99.99,,2013-04-29 14:21:00,
2013-04-29 10:32:00,54.0,52.0,30.03,West,278,0.0,0.0,93,-99.99,,,-99.99,,2013-04-29 14:32:00,
2013-04-29 10:42:00,54.0,52.0,30.03,West,278,0.0,0.0,93,-99.99,,,-99.99,,2013-04-29 14:42:00,
2013-04-29 10:52:00,54.0,52.0,30.03,West,278,0.0,0.0,93,-99.99,,,-99.99,,2013-04-29 14:52:00,
2013-04-29 11:01:00,54.0,52.0,30.03,West,278,0.0,0.0,93,-99.99,,,-99.99,,2013-04-29 15:01:00,
2013-04-29 11:12:00,54.0,52.0,30.03,West,278,0.0,0.0,93,-99.99,,,-99.99,,2013-04-29 15:12:00,
2013-04-29 11:21:00,54.0,52.0,30.03,West,278,0.0,0.0,93,-99.99,,,-99.99,,2013-04-29 15:21:00,
2013-04-29 11:33:00,55.0,53.0,30.03,West,278,0.0,0.0,93,0.04,,,-99.99,,2013-04-29 15:33:00,
2013-04-29 11:42:00,55.0,53.0,30.03,West,278,0.0,0.0,93,0.04,,,-99.99,,2013-04-29 15:42:00,
2013-04-29 11:53:00,55.0,53.0,30.03,West,279,1.0,1.0,93,0.04,,,-99.99,,2013-04-29 15:53:00,
2013-04-29 12:03:00,55.0,53.0,30.03,North,351,4.0,4.0,93,0.05,,,-99.99,,2013-04-29 16:03:00,
2013-04-29 12:12:00,55.0,53.0,30.03,North,351,4.0,4.0,93,0.05,,,-99.99,,2013-04-29 16:12:00,
2013-04-29 12:23:00,56.0,54.0,30.03,East,93,0.0,0.0,93,0.04,,,-99.99,,2013-04-29 16:23:00,
2013-04-29 12:33:00,56.0,54.0,30.02,East,96,0.0,0.0,93,0.02,,,-99.99,,2013-04-29 16:33:00,
2013-04-29 12:42:00,56.0,54.0,30.02,East,96,0.0,0.0,93,0.02,,,-99.99,,2013-04-29 16:42:00,
2013-04-29 12:52:00,56.0,54.0,30.02,East,96,2.0,2.0,93,0.01,,,-99.99,,2013-04-29 16:52:00,
2013-04-29 13:02:00,57.0,55.0,30.02,East,96,0.0,0.0,93,0.01,,,-99.99,,2013-04-29 17:02:00,
2013-04-29 13:12:00,57.0,55.0,30.02,East,96,0.0,0.0,93,0.01,,,-99.99,,2013-04-29 17:12:00,
2013-04-29 13:22:00,57.0,55.0,30.01,East,95,0.0,0.0,93,0.00,,,-99.99,,2013-04-29 17:22:00,
2013-04-29 13:32:00,57.0,55.0,30.01,East,95,0.0,0.0,93,0.00,,,-99.99,,2013-04-29 17:32:00,
2013-04-29 13:42:00,57.0,55.0,30.01,East,95,0.0,0.0,93,0.00,,,-99.99,,2013-04-29 17:42:00,
2013-04-29 13:52:00,57.0,55.0,30.01,East,95,0.0,0.0,93,0.00,,,-99.99,,2013-04-29 17:52:00,
2013-04-29 14:01:00,57.0,55.0,30.01,East,95,0.0,0.0,93,0.00,,,-99.99,,2013-04-29 18:01:00,
2013-04-29 14:13:00,57.0,55.0,30.01,East,95,0.0,0.0,93,0.00,,,-99.99,,2013-04-29 18:13:00,